Location: Dreilärchen
(47.9312°N, 8.6113°E)
Time: 20:47:03
(UTC+00:00)

SL-8 Rocket - Pass Details

Date: 26 May 2022
Orbit: 958 x 990 km, 82.9° (Epoch: 02 July)

Event Time Altitude Azimuth Distance (km) Brightness Sun altitude
Rises 02:44:09 0° 349° (NNW) 3,713 7.5 -7.5°
Reaches altitude 10° 02:46:41 10° 347° (NNW) 2,762 6.8 -7.2°
Maximum altitude 02:52:59 70° 265° (W) 1,054 4.1 -6.4°
Drops below altitude 10° 02:59:13 10° 184° (S) 2,741 6.0 -5.7°
Sets 03:01:44 0° 182° (S) 3,683 6.6 -5.3°
